NQ2U Weather Reports


Display with metric or nautical units.
time (UTC)temp
F
wind
direction
speed
MPH
gust
MPH
rain 1hr
in
rain 24hr
in
rain mn
in
humidity
%
barometer
mb
20191016050156 76 266 0.0 0.0 0.00 0.00 0.00 88 1015.3
20191016044616 76 266 0.0 0.0 0.00 0.00 0.00 87 1015.4
20191016043105 77 266 0.0 0.0 0.00 0.00 0.00 86 1015.5
20191016041558 77 266 0.0 0.0 0.00 0.00 0.00 85 1015.6
20191016040137 77 266 0.0 0.0 0.00 0.00 0.00 85 1015.6
20191016034610 78 266 0.0 0.0 0.00 0.00 0.00 85 1015.7
20191016033107 78 257 0.0 0.0 0.00 0.00 0.00 84 1015.7
20191016031551 78 256 0.0 1.0 0.00 0.00 0.00 85 1015.7
20191016030052 78 332 0.0 0.0 0.00 0.00 0.00 84 1015.8
20191016024633 78 331 0.0 0.0 0.00 0.00 0.00 84 1016.0
20191016023108 78 328 0.0 0.0 0.00 0.00 0.00 84 1016.1
20191016021531 78 6 0.0 0.0 0.00 0.00 0.00 83 1016.0
20191016020113 79 27 0.0 1.0 0.00 0.00 0.00 83 1016.1
20191016014543 79 2 0.0 0.0 0.00 0.00 0.00 83 1016.2
20191016013042 79 299 0.0 0.0 0.00 0.00 0.00 82 1016.1
20191016011546 79 325 0.0 0.0 0.00 0.00 0.00 82 1016.1
20191016010103 79 328 0.0 0.0 0.00 0.00 0.00 82 1016.2
20191016004543 79 266 0.0 1.0 0.00 0.00 0.00 82 1015.8
20191016003053 80 20 0.0 1.0 0.00 0.00 0.00 82 1015.6
20191016001638 80 202 0.0 0.0 0.00 0.00 0.00 81 1015.5
20191016000046 80 20 0.0 0.0 0.00 0.00 0.00 80 1015.3
20191015234624 80 22 0.0 1.0 0.00 0.00 0.00 80 1015.1
20191015233036 80 300 0.0 1.0 0.00 0.00 0.00 79 1015.1
20191015231555 81 346 0.0 1.0 0.00 0.00 0.00 78 1015.0
20191015230046 81 225 0.0 1.0 0.00 0.00 0.00 77 1014.8
20191015224535 82 333 0.0 2.0 0.00 0.00 0.00 76 1014.8
20191015223032 83 328 0.0 2.0 0.00 0.00 0.00 74 1014.7
20191015221605 84 355 0.0 2.0 0.00 0.00 0.00 72 1014.6
20191015220058 86 11 0.0 1.0 0.00 0.00 0.00 71 1014.5
20191015214524 86 231 0.0 0.0 0.00 0.00 0.00 70 1014.6
20191015213100 87 343 0.0 1.0 0.00 0.00 0.00 66 1014.7
20191015211548 89 348 0.0 1.0 0.00 0.00 0.00 64 1014.7
20191015210105 90 335 0.0 1.0 0.00 0.00 0.00 61 1014.6
20191015204546 91 174 0.0 0.0 0.00 0.00 0.00 61 1014.7
20191015203059 90 141 0.0 0.0 0.00 0.00 0.00 62 1014.8
20191015201556 90 330 0.0 2.0 0.00 0.00 0.00 63 1014.9
20191015200022 89 340 0.0 1.0 0.00 0.00 0.00 64 1015.0
20191015194529 88 6 0.0 3.0 0.00 0.00 0.00 65 1015.1
20191015193032 89 331 0.0 7.0 0.00 0.00 0.00 63 1015.1
20191015191537 91 27 0.0 1.0 0.00 0.00 0.00 61 1015.2
20191015190033 90 143 0.0 1.0 0.00 0.00 0.00 64 1015.3
20191015184521 88 53 0.0 2.0 0.00 0.00 0.00 66 1015.4
20191015183034 90 337 0.0 5.0 0.00 0.00 0.00 63 1015.6
20191015181521 91 343 0.0 2.0 0.00 0.00 0.00 61 1015.8
20191015180229 89 118 0.0 5.0 0.00 0.00 0.00 64 1016.1
20191015174633 89 235 0.0 2.0 0.00 0.00 0.00 64 1016.5
20191015173135 89 212 0.0 4.0 0.00 0.00 0.00 65 1016.6
20191015171644 89 328 0.0 1.0 0.00 0.00 0.00 65 1016.9
20191015170212 87 335 0.0 4.0 0.00 0.00 0.00 68 1017.0
20191015164657 90 328 0.0 1.0 0.00 0.00 0.00 62 1017.3
20191015163223 89 243 0.0 1.0 0.00 0.00 0.00 63 1017.5
20191015161615 88 143 0.0 0.0 0.00 0.00 0.00 67 1017.6
20191015160138 87 326 0.0 4.0 0.00 0.00 0.00 66 1017.8
20191015154552 87 11 0.0 4.0 0.00 0.00 0.00 65 1017.8
20191015153204 86 336 0.0 2.0 0.00 0.00 0.00 68 1018.0
20191015151551 86 156 0.0 2.0 0.00 0.00 0.00 67 1018.3
20191015150137 85 329 0.0 3.0 0.00 0.00 0.00 69 1018.2
20191015144602 85 216 0.0 2.0 0.00 0.00 0.00 71 1018.3
20191015143044 85 205 0.0 2.0 0.00 0.00 0.00 70 1018.3
20191015141600 84 155 0.0 1.0 0.00 0.00 0.00 72 1018.2
20191015140101 83 320 0.0 2.0 0.00 0.00 0.00 74 1018.1
20191015134550 0 0.0 0.0 0.00 0.00 0.00 1018.0
20191015133048 0 0.0 0.0 0.00 0.00 0.00 1017.8
20191015131530 0 0.0 0.0 0.00 0.00 0.00 1017.6
20191015130059 0 0.0 0.0 0.00 0.00 0.00 1017.5
20191015124529 0 0.0 0.0 0.00 0.00 0.00 1017.5
20191015123023 0 0.0 0.0 0.00 0.00 0.00 1017.7
20191015121654 0 0.0 0.0 0.00 0.00 0.00 1017.8
20191015120200 0 0.0 0.0 0.00 0.00 0.00 1017.8
20191015114744 0 0.0 0.0 0.00 0.00 0.00 1017.7
20191015113142 0 0.0 0.0 0.00 0.00 0.00 1017.6
20191015111642 0 0.0 0.0 0.00 0.00 0.00 1017.7
20191015110201 0 0.0 0.0 0.00 0.00 0.00 1017.5
20191015104559 0 0.0 0.0 0.00 0.00 0.00 1017.4
20191015103112 0 0.0 0.0 0.00 0.00 0.00 1017.3
20191015101649 0 0.0 0.0 0.00 0.00 0.00 1017.3
20191015100123 0 0.0 0.0 0.00 0.00 0.00 1017.2
20191015094648 0 0.0 0.0 0.00 0.00 0.00 1017.2
20191015093105 0 0.0 0.0 0.00 0.00 0.00 1017.2
20191015091644 0 0.0 0.0 0.00 0.00 0.00 1017.2
20191015090115 0 0.0 0.0 0.00 0.00 0.00 1017.2
20191015084600 73 176 0.0 0.0 0.00 0.00 0.00 92 1017.1
20191015083122 73 179 0.0 0.0 0.00 0.00 0.00 92 1017.1
20191015081534 74 179 0.0 0.0 0.00 0.00 0.00 93 1017.0
20191015080041 73 179 0.0 0.0 0.00 0.00 0.00 92 1017.0
20191015074550 74 179 0.0 0.0 0.00 0.00 0.00 92 1017.1
20191015073026 74 179 0.0 0.0 0.00 0.00 0.00 92 1017.1
20191015071534 74 179 0.0 0.0 0.00 0.00 0.00 91 1017.3
20191015070020 74 179 0.0 0.0 0.00 0.00 0.00 91 1017.5
20191015064521 74 179 0.0 0.0 0.00 0.00 0.00 91 1017.7
20191015063028 74 303 0.0 0.0 0.00 0.00 0.00 92 1017.9
20191015061534 74 303 0.0 0.0 0.00 0.00 0.00 91 1017.9
20191015060020 74 303 0.0 0.0 0.00 0.00 0.00 90 1017.9
20191015054507 75 303 0.0 0.0 0.00 0.00 0.00 89 1018.1
20191015053031 75 304 0.0 0.0 0.00 0.00 0.00 89 1018.3
20191015051506 75 303 0.0 0.0 0.00 0.00 0.00 89 1018.2